AO-07 1 07530U 74089B 20331.56746118 -.00000028 00000-0 10662-3 0 9999 2 07530 101.8249 300.5342 0012506 052.3029 061.6710 12.53646277106308 UO-11 1 14781U 84021B 20331.74205795 .00000236 00000-0 34955-4 0 9995 2 14781 97.5897 335.6395 0009270 36.4163 323.7680 14.83215371976885 LO-19 1 20442U 90005G 20331.78661486 .00000020 00000-0 23944-4 0 9999 2 20442 98.7133 279.7311 0012515 41.1812 319.0313 14.32968025611868 HUBBLE 1 20580U 90037B 20331.42373212 .00000871 00000-0 41951-4 0 9997 2 20580 028.4709 328.3172 0002820 040.9341 079.4493 15.09487063480423 MET-2/21 1 22782U 93055A 20331.78220166 .00000060 00000-0 40571-4 0 9991 2 22782 82.5479 104.7672 0023265 137.8863 328.8760 13.83830990375765 AO-27 1 22825U 93061C 20331.55185369 .00000018 00000-0 25108-4 0 9998 2 22825 098.9254 338.1057 0007406 264.8893 095.1443 14.30098662416985 IO-26 1 22826U 93061D 20331.57015282 .00000030 00000-0 29515-4 0 9997 2 22826 098.9194 338.0534 0007981 251.1386 108.8930 14.30435744417229 FO-29 1 24278U 96046B 20331.76961598 -.00000033 00000-0 56294-5 0 9996 2 24278 98.5888 60.4001 0349533 314.7232 42.5930 13.53100448199080 NOAA-15 1 25338U 98030A 20331.79966980 .00000054 00000-0 41188-4 0 9999 2 25338 98.7038 355.9201 0010999 146.2080 213.9803 14.26000488172360 GO-32 1 25397U 98043D 20331.43998150 -.00000007 00000-0 16292-4 0 9990 2 25397 98.7464 271.8210 0000917 7.1561 352.9630 14.23695473162825 ISS 1 25544U 98067A 20332.05887731 .00003238 00000-0 66738-4 0 9999 2 25544 51.6457 262.5679 0001931 84.5550 92.9510 15.49074034257263 NO-44 1 26931U 01043C 20331.57533444 -.00000026 00000-0 21823-4 0 9992 2 26931 067.0518 084.0143 0007064 274.7237 085.3057 14.30596147000232 SO-50 1 27607U 02058C 20331.47371173 .00000095 00000-0 34084-4 0 9996 2 27607 064.5556 238.9989 0030841 115.5847 244.8449 14.75682506964626 CO-55 1 27844U 03031E 20331.59046328 .00000102 00000-0 65544-4 0 9999 2 27844 98.6822 336.8815 0009039 310.2766 49.7621 14.22270689903183 CO-57 1 27848U 03031J 20331.52367727 .00000079 00000-0 55474-4 0 9999 2 27848 098.6885 337.3828 0009094 324.3645 035.6924 14.21853190902978 RS-22 1 27939U 03042A 20331.80027679 .00000282 00000-0 59027-4 0 9996 2 27939 98.1133 104.6937 0012694 194.8391 165.2449 14.66911376917815 NOAA-18 1 28654U 05018A 20331.79750986 .00000103 00000-0 80269-4 0 9992 2 28654 99.0241 29.5802 0015054 131.8509 228.3950 14.12558758799921 CO-58 1 28895U 05043F 20331.82867649 .00000263 00000-0 59282-4 0 9994 2 28895 98.0324 103.8652 0017866 126.7693 233.5152 14.63829863804594 Falconsat-3 1 30776U 07006E 20331.68577422 .00008617 00000-0 21988-3 0 9999 2 30776 35.4352 321.4726 0003604 229.1467 130.8948 15.38786414761831 CO-65 1 32785U 08021C 20331.54021238 .00000547 00000-0 64373-4 0 9993 2 32785 097.5894 312.5707 0012034 321.5274 038.5085 14.88565205681983 AAUSAT2 1 32788U 08021F 20331.74554949 .00001548 00000-0 14550-3 0 9991 2 32788 97.4960 329.0850 0010516 225.1924 134.8443 14.95250565683668 DO-64 1 32789U 08021G 20331.38240980 .00003356 00000-0 22068-3 0 9991 2 32789 097.4017 008.4016 0013424 117.7748 242.4843 15.08167922686218 CO-66 1 32791U 08021J 20331.79624294 .00000862 00000-0 92044-4 0 9994 2 32791 97.5533 318.8924 0011794 283.5062 76.4843 14.91182265682657 RS-30 1 32953U 08025A 20331.89299069 .00000028 00000-0 12906-3 0 9999 2 32953 82.5026 176.9037 0019937 58.9756 301.3273 12.43099007567810 PRISM 1 33493U 09002B 20331.46327780 .00001563 00000-0 14029-3 0 9993 2 33493 098.1614 278.6241 0013935 236.2890 123.7003 14.97259614643944 NOAA-19 1 33591U 09005A 20331.74249194 .00000064 00000-0 60130-4 0 9998 2 33591 99.1946 341.3118 0013723 344.8464 15.2293 14.12440612608305 TISAT-1 1 36799U 10035E 20331.73035473 .00000838 00000-0 89777-4 0 9995 2 36799 98.2017 148.3771 0012674 153.2674 206.9199 14.91500550563316 JUGNU 1 37839U 11058B 20331.54480771 .00000336 00000-0 37380-4 0 9997 2 37839 019.9628 019.7655 0019060 015.9203 127.7634 14.12696108471736 SRMSAT 1 37841U 11058D 20331.56310874 .00000297 00000-0 17732-4 0 9993 2 37841 019.9720 087.3321 0011733 224.8375 230.5185 14.10678645471056 AO-71 1 37854U 11061E 20331.44496259 .00003270 00000-0 16889-3 0 9995 2 37854 101.7132 146.4781 0156996 299.9345 058.6356 15.07748995495884 HRBE 1 37855U 11061F 20331.42901721 .00003174 00000-0 16140-3 0 9992 2 37855 101.7265 143.5277 0169539 314.0844 044.6517 15.06778854495598 HORYU-2 1 38340U 12025D 20331.17617419 .00000377 00000-0 62733-4 0 9995 2 38340 98.2614 28.4610 0010411 241.4939 118.5221 14.75926510458816 RS-40 1 38735U 12041C 20331.77223890 .00000002 00000-0 -57489-4 0 9991 2 38735 82.4742 259.4366 0016326 164.7855 195.3718 12.42580242378017 BEESAT-3 1 39135U 13015F 20331.79893539 .00003303 00000-0 16757-3 0 9991 2 39135 64.8663 136.9760 0022694 214.5666 145.3987 15.18582243420250 BEESAT-2 1 39136U 13015G 20331.77948728 .00002819 00000-0 14595-3 0 9990 2 39136 64.8758 142.6168 0033438 264.6084 95.1227 15.17983283420145 ZACUBE-1 1 39417U 13066B 20331.55055834 .00000471 00000-0 64821-4 0 9991 2 39417 97.5756 320.6472 0060201 105.9674 254.8183 14.81362839379038 TRITON-1 1 39427U 13066M 20331.76480994 .00000431 00000-0 76673-4 0 9998 2 39427 97.7487 283.8640 0112183 279.1690 79.6839 14.68098820375665 GOMX-1 1 39430U 13066Q 20331.81467462 .00000494 00000-0 97580-4 0 9992 2 39430 97.8029 260.6194 0151790 33.5089 327.5616 14.59477812373488 LO-74 1 39440U 13066AA 20331.50715436 .00000368 00000-0 57754-4 0 9995 2 39440 097.6505 305.2193 0080088 173.0936 187.1398 14.76098970376486 AO-73 1 39444U 13066AE 20331.72422865 .00000578 00000-0 76523-4 0 9992 2 39444 97.5681 323.1198 0059341 97.0351 263.7617 14.82235047377999 SPROUT 1 39770U 14029E 20331.76273005 .00001561 00000-0 17605-3 0 9996 2 39770 97.9049 77.4573 0009579 148.2533 211.9246 14.88001894353194 DUCHIFAT-1 1 40021U 14033M 20331.55532572 .00001014 00000-0 10813-3 0 9993 2 40021 097.9539 263.8639 0014103 110.3165 249.9570 14.91061461350045 NANOSATCBR1 1 40024U 14033Q 20331.53531409 .00000744 00000-0 82537-4 0 9994 2 40024 097.9360 259.6742 0013392 114.8877 245.3734 14.90206497349371 DTUSAT-2 1 40030U 14033W 20331.73345019 .00000601 00000-0 70168-4 0 9992 2 40030 97.9070 253.1439 0013024 118.0622 242.1913 14.88815920349664 EO-80 1 40032U 14033Y 20331.75772148 .00000585 00000-0 68514-4 0 9996 2 40032 97.9076 253.1719 0012983 118.9137 241.3384 14.88768442349654 ANTELSAT 1 40034U 14033AA 20331.81538551 .00000449 00000-0 73291-4 0 9990 2 40034 97.6935 179.5692 0058162 192.7240 167.2505 14.74340753346331 VELOX-1 1 40057U 14034E 20331.71771147 .00000589 00000-0 89304-4 0 9992 2 40057 98.3023 113.3656 0010537 352.7575 7.3495 14.77986598345596 DAURIA DX 1 1 40071U 14037C 20331.75932188 .00000210 00000-0 34393-4 0 9998 2 40071 98.4596 159.1928 0008109 345.9506 14.1482 14.81416915345282 HODOYOSHI-1 1 40299U 14070B 20331.75315273 .00001443 00000-0 61831-4 0 9993 2 40299 97.3093 44.6148 0012634 351.5309 123.9013 15.24298188336533 CHUBUSAT-1 1 40300U 14070C 20331.81092618 .00001576 00000-0 70114-4 0 9999 2 40300 97.2702 35.9729 0020035 6.1008 131.4139 15.22758190336213 QSAT-EOS 1 40301U 14070D 20331.75690156 .00004067 00000-0 15242-3 0 9992 2 40301 97.2787 42.4080 0024123 336.6442 139.0342 15.27557260336709 FIREBIRD FU3 1 40377U 15003B 20331.55928335 .00006737 00000-0 25278-3 0 9999 2 40377 099.0853 064.8861 0122393 132.1507 229.0200 15.20868342321931 FIREBIRD FU4 1 40378U 15003C 20331.80464325 .00007112 00000-0 26611-3 0 9992 2 40378 99.0858 65.2930 0122565 131.2007 229.9869 15.20904671321986 GRIFEX 1 40379U 15003D 20331.78087664 .00005043 00000-0 20843-3 0 9999 2 40379 99.0883 56.1821 0131792 159.3345 201.3284 15.16969090321459 NO-84 1 40654U 15025D 20330.35092183 .00027297 00000-0 27720-3 0 1104 2 40654 54.9845 276.8278 0099254 246.2272 112.8259 15.58991401194072 DEORBITSAIL 1 40719U 15032E 20331.33942465 .00000770 00000-0 11583-3 0 9992 2 40719 97.8493 215.8102 0017444 47.3407 312.9270 14.77140053289990 NUDT-PHONESAT 1 40900U 15049B 20331.71226532 .00005177 00000-0 21062-3 0 9993 2 40900 97.4287 341.3077 0013634 128.4765 290.7174 15.24877305287916 XW-2A 1 40903U 15049E 20331.73111057 .00004871 00000-0 10906-3 0 9998 2 40903 97.2678 20.6639 0014028 39.4498 103.1759 15.43833649291504 XW-2C 1 40906U 15049H 20331.74801959 .00001655 00000-0 88709-4 0 9993 2 40906 97.4822 330.7723 0014982 164.4153 9.1599 15.16305097286844 XW-2D 1 40907U 15049J 20331.78146222 .00001506 00000-0 80434-4 0 9995 2 40907 97.4813 330.5409 0014224 160.9869 12.3246 15.16565622286878 LILACSAT-2 1 40908U 15049K 20331.76899624 .00000618 00000-0 37380-4 0 9990 2 40908 97.4974 328.6588 0015783 174.4306 357.4715 15.14178331286554 XW-2E 1 40909U 15049L 20331.78695101 .00002335 00000-0 11527-3 0 9999 2 40909 97.4662 334.2806 0014193 150.4381 22.6619 15.18808353287166 XW-2F 1 40910U 15049M 20331.78052241 .00002350 00000-0 11756-3 0 9994 2 40910 97.4714 333.3517 0015181 149.9011 331.1950 15.18315060286967 XW-2B 1 40911U 15049N 20331.77347243 .00001466 00000-0 78577-4 0 9995 2 40911 97.4817 331.2302 0014398 162.1687 10.9753 15.16487852286764 DCBB 1 40912U 15049P 20331.79020429 .00002658 00000-0 12350-3 0 9992 2 40912 97.4487 337.6484 0016071 127.5420 45.8365 15.20755750287384 TW-1C 1 40926U 15051B 20331.73350411 .00091890 00000-0 56212-3 0 9992 2 40926 97.0612 25.3120 0004350 174.6384 333.7617 15.77067077292488 TW-1A 1 40928U 15051D 20331.71459329 .00007379 00000-0 16520-3 0 9997 2 40928 97.0970 355.5692 0008994 324.7083 100.6549 15.43700501290393 IO-86 1 40931U 15052B 20331.24644518 .00000850 00000-0 29321-4 0 9997 2 40931 6.0070 261.6087 0013094 43.5473 316.5913 14.76653090279215 LQSat 1 40958U 15057A 20331.79576650 .00000050 00000-0 15254-4 0 9994 2 40958 97.8331 29.7074 0017843 352.9157 7.1788 14.73140695276403 ATHENOXAT-1 1 41168U 15077C 20332.04699318 .00003729 00000-0 15789-3 0 9994 2 41168 14.9740 308.2410 0013257 238.1536 175.2726 15.14821238274032 ChubuSat-2 1 41338U 16012B 20331.56898169 .00000701 00000-0 47652-4 0 9996 2 41338 031.0045 035.8743 0013780 283.2042 076.7056 15.00379025262108 ChubuSat-3 1 41339U 16012C 20331.87875421 .00000643 00000-0 42973-4 0 9993 2 41339 31.0136 31.3493 0013622 295.1278 64.7950 15.00538114262141 Horyu-4 1 41340U 16012D 20331.83206647 .00001078 00000-0 74413-4 0 9996 2 41340 31.0065 17.6160 0013884 320.8578 39.1053 15.01640837262306 OUFTI-1 1 41458U 16025C 20331.81434898 .00003093 00000-0 15478-3 0 9993 2 41458 98.1204 91.1837 0162088 23.3331 337.5145 15.07489651251931 e-st@r-II 1 41459U 16025D 20331.77634414 .00002600 00000-0 13176-3 0 9991 2 41459 98.1184 90.4179 0164025 25.8983 335.0327 15.07006635251889 AAUSAT4 1 41460U 16025E 20331.78694274 .00003992 00000-0 19355-3 0 9994 2 41460 98.1180 93.3726 0151656 12.6012 347.8930 15.09562478252123 LO-87 1 41557U 16033B 20331.85548479 .00003418 00000-0 12576-3 0 9994 2 41557 97.4003 61.0378 0012087 228.5303 269.6411 15.28497794250577 NuSat2 1 41558U 16033C 20331.86705088 .00003839 00000-0 13246-3 0 9999 2 41558 97.4081 63.9832 0011224 223.1106 260.3672 15.30535396250722 Lapan A3 1 41603U 16040E 20331.82649660 .00000299 00000-0 16985-4 0 9998 2 41603 97.2879 20.0871 0013487 0.8294 88.2926 15.19908566245806 Swayam 1 41607U 16040J 20331.39489009 .00003915 00000-0 16048-3 0 9990 2 41607 97.2989 26.8073 0012250 343.0195 17.0631 15.24782690246098 Pratham 1 41783U 16059A 20331.69403027 .00000118 00000-0 31914-4 0 9996 2 41783 97.9960 22.4100 0034008 163.1316 197.1025 14.63090263222601 AlSat 1N 1 41789U 16059G 20331.70775691 .00000154 00000-0 37810-4 0 9994 2 41789 97.9997 25.6262 0028917 149.3087 210.9813 14.64362544222776 ScatSat 1 41790U 16059H 20331.73772709 .00000033 00000-0 19736-4 0 9999 2 41790 98.3970 8.4150 0005960 129.6912 230.4810 14.50795595220751 TY-1 1 41844U 16066D 20331.78476984 .00002049 00000-0 84320-4 0 9998 2 41844 97.4032 338.1611 0016184 128.1901 44.4802 15.25169800225001 Pegasus-1 1 41846U 16066F 20331.57407149 .00000592 00000-0 98230-4 0 9990 2 41846 098.6414 023.1614 0367546 110.2594 253.8499 14.37876983212266 CAS-2T 1 41847U 16066G 20331.73906966 .00000198 00000-0 39144-4 0 9991 2 41847 98.6332 23.7125 0366586 105.1834 259.0196 14.38116869212748 EO-88 1 42017U 17008BX 20331.43747440 .00004220 00000-0 16160-3 0 9997 2 42017 097.3436 036.5225 0007732 105.9691 254.2400 15.27063395210260 CAS-4B 1 42759U 17034B 20331.76472413 .00000702 00000-0 55893-4 0 9998 2 42759 43.0178 215.1931 0011114 328.6584 138.4508 15.09968294190505 CAS-4A 1 42761U 17034D 20331.76683557 .00000696 00000-0 55408-4 0 9998 2 42761 43.0175 214.3718 0011580 330.2249 137.7716 15.10047906190506 UCLSat 1 42765U 17036A 20331.62887866 .00003240 00000-0 13653-3 0 9991 2 42765 97.2810 21.3600 0011493 166.0317 194.1241 15.23975399190686 NIUSat 1 42766U 17036B 20331.41416280 .00002500 00000-0 11193-3 0 9992 2 42766 097.2808 018.1710 0015737 164.7062 195.4653 15.22063083190326 LituanicaSAT 2 1 42768U 17036D 20331.79737578 .00005478 00000-0 22288-3 0 9995 2 42768 97.2877 21.7868 0015013 157.3052 202.8853 15.24819663190579 Aalto 1 1 42775U 17036L 20331.38746532 .00001928 00000-0 86888-4 0 9991 2 42775 97.2779 18.4679 0014145 163.4714 196.6986 15.22125977190303 URSA MAIOR 1 42776U 17036M 20331.09321389 .00002147 00000-0 95833-4 0 9993 2 42776 097.2796 018.5409 0013972 163.8684 196.3000 15.22337364190277 Max Valier Sat 1 42778U 17036P 20331.38922535 .00002472 00000-0 10797-3 0 9993 2 42778 97.2857 20.3862 0012560 164.9642 195.1971 15.22961552190376 Pegasus 1 42784U 17036V 20331.42562974 .00003035 00000-0 12936-3 0 9995 2 42784 097.2816 020.7849 0012018 168.3885 191.7632 15.23630262190437 NUDATSat 1 42787U 17036Y 20331.59694947 .00004602 00000-0 18607-3 0 9994 2 42787 097.2846 022.7467 0011478 162.3297 197.8340 15.25154457190400 SUCHAI 1 1 42788U 17036Z 20331.38804793 .00003572 00000-0 14898-3 0 9997 2 42788 97.2827 21.4958 0011597 166.1512 194.0046 15.24258765190548 SKCUBE 1 42789U 17036AA 20331.38673108 .00003322 00000-0 13953-3 0 9996 2 42789 097.2820 021.2935 0011472 166.5551 193.5995 15.24066349190456 VZLUSAT 1 1 42790U 17036AB 20331.39105295 .00004572 00000-0 18505-3 0 9992 2 42790 097.2850 022.5380 0011068 163.2541 196.9064 15.25127405190527 VENTA 1 1 42791U 17036AC 20331.42892295 .00003373 00000-0 14174-3 0 9996 2 42791 097.2817 021.3663 0011146 166.6294 193.5241 15.24041748190457 Robusta 1B 1 42792U 17036AD 20331.18823015 .00003335 00000-0 13923-3 0 9993 2 42792 97.2823 21.4050 0011046 167.1268 193.0254 15.24272165190450 D-SAT 1 42794U 17036AF 20331.81570997 .00000646 00000-0 60901-4 0 9994 2 42794 97.4791 356.3100 0125950 182.2615 177.8051 14.91372578186898 TechnoSat 1 42829U 17042E 20331.67699781 .00000469 00000-0 52439-4 0 9997 2 42829 97.4947 205.6106 0015658 102.5040 257.7932 14.91168210183464 QIKCOM-1 1 42983U 98067NF 20331.14747423 .00011347 00000-0 12700-3 0 9996 2 42983 51.6373 209.5911 0002584 307.7700 52.3060 15.63242282175568 AO-91 1 43017U 17073E 20331.68955812 .00001188 00000-0 97935-4 0 9991 2 43017 97.7160 237.6071 0254869 241.5224 116.0104 14.79170585163142 EcAMSat 1 43019U 98067NG 20331.80911042 .00022970 00000-0 19291-3 0 9996 2 43019 51.6394 185.6013 0002309 288.3463 71.7283 15.69799833258260 PICSAT 1 43132U 18004X 20331.75456535 .00003755 00000-0 15367-3 0 9990 2 43132 97.4331 42.0000 0008998 193.1010 166.9995 15.24914620159786 AO-92 1 43137U 18004AC 20331.76329699 .00002760 00000-0 11511-3 0 9998 2 43137 97.4313 41.7109 0008553 195.2191 164.8790 15.24507607159768 TianYi 2 1 43155U 18008A 20331.78239580 .00002021 00000-0 12145-3 0 9997 2 43155 97.4302 36.6005 0016146 312.1391 165.0793 15.11908683157447 Zhou Enlai 1 43156U 18008B 20331.73483660 .00002310 00000-0 14000-3 0 9996 2 43156 97.4347 36.3923 0013339 312.4577 202.4606 15.11480552157385 TianYi 6 1 43158U 18008D 20331.73050443 .00001894 00000-0 11705-3 0 9992 2 43158 97.4278 35.2400 0012684 311.2301 165.3776 15.10980502157320 S-Net D 1 43186U 18014G 20331.48963614 .00001059 00000-0 97226-4 0 9991 2 43186 97.6854 236.5977 0012149 48.2024 312.0234 14.96898453153932 S-Net B 1 43187U 18014H 20331.62318582 .00001058 00000-0 97154-4 0 9995 2 43187 97.6852 236.7024 0012145 47.7343 312.4906 14.96898289153959 S-Net A 1 43188U 18014J 20331.62307291 .00001045 00000-0 96006-4 0 9992 2 43188 97.6855 236.7384 0012137 47.8231 312.4020 14.96897687153958 S-Net C 1 43189U 18014K 20331.75725817 .00001073 00000-0 98442-4 0 9992 2 43189 97.6853 236.8284 0012146 47.3254 312.8989 14.96897776152526 FMN 1 1 43192U 18015A 20331.76985791 .00005228 00000-0 20324-3 0 9996 2 43192 97.4634 100.7629 0014243 234.8900 261.3066 15.26394798156650 Shaonian Xing 1 43199U 18015H 20331.75542951 .00004161 00000-0 16253-3 0 9990 2 43199 97.4426 98.5777 0015059 245.1310 251.1436 15.26349986156714 UBAKUSAT 1 43467U 98067NQ 20331.79977849 .00225739 30936-4 57747-3 0 9999 2 43467 51.6277 158.5776 0004013 240.4144 119.6464 15.94873720145805 EQUISat 1 43552U 98067PA 20331.41015459 .00238264 32919-4 64159-3 0 9998 2 43552 051.6251 168.8124 0002941 247.4722 112.5974 15.93906993135827 SiriusSat 1 1 43595U 98067PG 20331.83403908 .00331414 58788-4 56251-3 0 9998 2 43595 51.6171 166.8434 0010643 269.2912 90.8147 16.01979418130735 SiriusSat 2 1 43596U 98067PH 20331.84247995 .00335934 60101-4 57179-3 0 9995 2 43596 51.6190 167.7215 0009955 256.3372 103.7520 16.01944551130723 SurfSat 1 43614U 18070B 20331.44370953 .00007191 00000-0 17844-3 0 9993 2 43614 93.0293 221.6973 0017720 73.6731 286.6471 15.40208036123403 CP-7 DAVE 1 43615U 18070C 20331.42785488 .00006972 00000-0 17415-3 0 9995 2 43615 093.0295 221.6700 0017877 073.4572 286.8645 15.40004218123397 ELFIN-B 1 43616U 18070D 20331.69602203 .00008944 00000-0 21019-3 0 9994 2 43616 93.0253 221.7901 0018093 72.5434 287.7798 15.41831559123503 ELFIN-A 1 43617U 18070E 20331.44587851 .00011769 00000-0 27384-3 0 9999 2 43617 093.0310 222.3388 0017508 070.7811 289.5337 15.42125961123472 STARS-Me Mother 1 43640U 98067PQ 20331.36419658 .00046067 00000-0 35114-3 0 9998 2 43640 051.6325 204.0380 0002292 254.4316 105.6430 15.71753387122133 CubeBel 1 1 43666U 18083E 20331.82831590 .00002328 00000-0 11548-3 0 9997 2 43666 97.4771 356.6095 0015734 149.6959 23.0291 15.18618282115252 Changshagaoxin 1 43669U 18083H 20331.72074475 .00002018 00000-0 10367-3 0 9994 2 43669 97.4657 354.1992 0011640 142.6194 329.2343 15.17575268115134 Ten-Koh 1 43677U 18084G 20331.29967639 .00000311 00000-0 37807-4 0 9992 2 43677 97.9001 88.1446 0015674 349.5394 10.5496 14.90352159113049 PO-101 1 43678U 18084H 20331.74346400 -.00000165 00000-0 -10672-4 0 9990 2 43678 97.9020 90.3199 0010180 9.3084 350.8329 14.91672093113212 IRVINE 01 1 43693U 18088D 20331.49409914 .00007159 00000-0 29482-3 0 9999 2 43693 085.0325 329.6928 0019531 059.0497 301.2662 15.23740240113511 QO-100 1 43700U 18090A 20331.57330333 .00000156 00000-0 00000-0 0 9990 2 43700 000.0131 336.4266 0002026 293.4128 028.2855 01.00272209007336 Reaktor Hello World 1 43743U 18096AA 20331.48660266 .00003416 00000-0 12789-3 0 9996 2 43743 097.4081 044.4490 0016005 275.6679 084.2735 15.27872708111134 MinXSS-2 1 43758U 18099A 20331.15969730 .00000927 00000-0 88034-4 0 9998 2 43758 97.6920 40.3351 0015810 14.8357 345.3325 14.95806789108125 AO-95 1 43770U 18099N 20331.74544059 .00001068 00000-0 10248-3 0 9998 2 43770 97.6907 40.1629 0014901 21.3154 338.8684 14.95108732108160 RANGE-B 1 43772U 18099Q 20331.74340807 .00001300 00000-0 12288-3 0 9990 2 43772 97.6981 40.8662 0014083 8.6964 351.4498 14.95338887108166 RANGE-A 1 43773U 18099R 20331.47214023 .00000853 00000-0 82995-4 0 9996 2 43773 97.6846 39.4062 0013571 9.9291 350.2195 14.95055578108112 MOVE-II 1 43780U 18099Y 20331.78066297 .00000733 00000-0 71152-4 0 9996 2 43780 97.6916 40.5284 0013758 18.1317 342.0392 14.95586991108177 SNUSat 2 1 43782U 18099AA 20331.74503628 .00001043 00000-0 99562-4 0 9998 2 43782 97.6905 40.4324 0012723 8.8815 351.2629 14.95366693108171 SnugLite 1 43784U 18099AC 20331.36773104 .00000435 00000-0 44372-4 0 9999 2 43784 097.6871 039.8435 0015422 016.4057 343.7660 14.95476397108132 ITASat 1 1 43786U 18099AE 20331.17103609 .00000212 00000-0 24354-4 0 9998 2 43786 97.6926 40.1350 0015544 16.0389 344.1321 14.95431667108102 EAGLET 1 1 43790U 18099AJ 20331.45642986 .00000329 00000-0 34546-4 0 9993 2 43790 97.6912 40.7414 0013805 19.3805 340.7938 14.95809825107869 ESEO 1 43792U 18099AL 20331.74856490 .00000697 00000-0 67768-4 0 9994 2 43792 97.6885 40.7638 0013591 16.7351 343.4315 14.95650979107961 CSIM 1 43793U 18099AM 20331.73789983 .00001411 00000-0 12998-3 0 9995 2 43793 97.6890 40.8635 0012837 12.9943 347.1607 14.96241699107953 Astrocast 0.1 1 43798U 18099AS 20331.69665820 .00000387 00000-0 39588-4 0 9994 2 43798 97.6917 41.1116 0012308 0.2447 359.8778 14.95964852108208 JO-97 1 43803U 18099AX 20331.16541235 .00000544 00000-0 54073-4 0 9997 2 43803 97.6887 39.9127 0015472 16.5428 343.6294 14.95633258108108 Suomi 100 1 43804U 18099AY 20331.43533177 .00000423 00000-0 43195-4 0 9993 2 43804 097.6885 040.1583 0015540 015.5488 344.6207 14.95616339108159 Al Farabi 2 1 43805U 18099AZ 20331.59581781 .00000536 00000-0 53102-4 0 9999 2 43805 097.6894 040.4488 0015603 013.8053 346.3598 14.95763821108180 PWSat 2 1 43814U 18099BJ 20331.72787084 .00144806 00000-0 55560-2 0 9995 2 43814 97.7932 56.9871 0005842 283.9866 76.0722 15.25837764108322 CHOMPTT 1 43855U 18104G 20331.58291234 .00002675 00000-0 11059-3 0 9991 2 43855 085.0390 067.9065 0017836 167.5704 192.5982 15.23321186108209 ISAT 1 43879U 18111D 20331.79918149 .00000138 00000-0 17223-4 0 9991 2 43879 97.6918 236.5209 0014556 62.5369 297.7345 14.96373971102743 UWE-4 1 43880U 18111E 20331.55234172 .00001193 00000-0 10963-3 0 9999 2 43880 097.6945 236.6362 0013707 066.5510 293.7151 14.96621207104735 Sparrow 1 43881U 18111F 20331.46312232 .00000536 00000-0 51939-4 0 9993 2 43881 097.6951 236.6448 0013702 063.2748 296.9875 14.96666558104725 Lume 1 1 43908U 18111AJ 20331.75518941 .00003045 00000-0 12264-3 0 9995 2 43908 97.2502 226.7779 0019362 291.5131 68.4043 15.25446111106769 FO-98 1 43933U 19003B 20331.09991714 .00001762 00000-0 78923-4 0 9993 2 43933 097.2098 014.4768 0018735 036.9964 323.2561 15.22377993103127 FO-99 1 43937U 19003F 20331.67487254 .00003198 00000-0 13054-3 0 9998 2 43937 97.2067 16.7501 0024099 15.2238 344.9720 15.24843966103353 Delphini 1 1 44030U 98067PW 20331.78774307 .00080751 00000-0 50010-3 0 9993 2 44030 51.6317 206.0834 0000719 161.3362 198.7665 15.76351664104010 MYSat 1 1 44045U 18092F 20331.59934744 .00006915 00000-0 19362-3 0 9996 2 44045 51.6392 334.4735 0010605 187.5310 172.5516 15.37748964100227 AstroCast 0.2 1 44083U 19018F 20331.77582021 .00001706 00000-0 77951-4 0 9996 2 44083 97.4022 30.4167 0012138 329.6189 30.4343 15.21883759 92062 AISTechSat 3 1 44103U 19018AB 20331.81958221 .00001958 00000-0 84954-4 0 9993 2 44103 97.3891 30.7317 0012814 343.5955 108.5650 15.23470077 92150 AISat 1 1 44104U 19018AC 20331.76302565 .00002023 00000-0 66084-4 0 9990 2 44104 97.4491 42.3311 0057521 358.0452 2.0555 15.31397053 92645 Raavana-1 1 44329U 98067QE 20331.11211524 .00033565 00000-0 37516-3 0 9995 2 44329 51.6381 241.6164 0004156 228.6817 131.3820 15.62417443 82232 Uguisu 1 44330U 98067QF 20331.26356502 .00035893 00000-0 40268-3 0 9993 2 44330 51.6361 241.0842 0004079 228.8702 131.1941 15.62287990 82232 NepaliSat-1 1 44331U 98067QG 20331.16712267 .00035173 00000-0 39264-3 0 9992 2 44331 51.6356 241.1924 0004073 232.0333 128.0293 15.62426665 82239 Prox-1 1 44339U 19036A 20331.27135800 .00001279 00000-0 25263-3 0 9997 2 44339 23.9985 173.5213 0010790 121.6959 238.4585 14.53233280 75674 Oculus-ASR 1 44348U 19036K 20331.58176214 .00025626 00000-0 37343-3 0 9999 2 44348 028.5185 037.7137 0353550 240.9681 115.5048 15.05959657078239 Armadillo 1 44352U 19036P 20331.56503277 .00038014 00000-0 53926-3 0 9995 2 44352 028.5339 028.3584 0334935 254.9685 101.3612 15.10314162078278 NO-104 1 44354U 19036R 20331.46309928 .00028332 00000-0 40529-3 0 9990 2 44354 028.5331 034.2335 0349690 245.1253 111.2601 15.07151344078252 NO-103 1 44355U 19036S 20331.79690693 .00052727 00000-0 68723-3 0 9990 2 44355 28.5321 12.4477 0314417 280.5237 76.0085 15.16187866 78499 CP9 1 44360U 19036X 20331.43814222 .00098504 -43005-5 10024-2 0 9994 2 44360 28.5133 345.7225 0279015 325.2535 33.0125 15.28053371 78608 Move-IIb 1 44398U 19038N 20331.83637113 .00003233 00000-0 18682-3 0 9999 2 44398 97.5566 291.2162 0023501 290.7834 69.0884 15.12798696 77121 SONATE 1 44400U 19038Q 20331.85489175 .00001292 00000-0 78301-4 0 9996 2 44400 97.5615 291.2267 0023770 289.4641 70.4022 15.12163828 77117 BeeSat 9 1 44412U 19038AC 20331.82706879 .00002611 00000-0 15247-3 0 9994 2 44412 97.5605 291.3487 0021017 294.4357 65.4681 15.12638288 76814 JAISAT-1 1 44419U 19038F 20331.46481258 .00002431 00000-0 14042-3 0 9994 2 44419 097.5606 291.3778 0019856 294.5825 065.3337 15.13119794077099 LightSail-2 1 44420U 19036AC 20331.84568166 .00009415 00000-0 19860-2 0 9991 2 44420 24.0084 160.4666 0011575 141.2519 218.8804 14.57429513 74008 Taurus 1 1 44530U 19059C 20331.83296023 .00001586 00000-0 45946-3 0 9993 2 44530 98.5623 54.4430 0014367 38.7199 321.5018 14.45787990 63800 Duchifat 3 1 44854U 19089C 20331.81215301 .00000864 00000-0 75927-4 0 9994 2 44854 36.9669 218.7598 0009735 295.6494 64.3247 14.99214930 52677 OPS-SAT 1 44878U 19092F 20331.78159902 .00002819 00000-0 15053-3 0 9999 2 44878 97.4686 152.3754 0014737 148.5471 211.6646 15.15847993 52120 TO-108 1 44881U 19093C 20331.76944707 .00000109 00000-0 20788-4 0 9999 2 44881 97.9451 46.6016 0013748 227.1257 132.8807 14.81411535 50720 FloripaSat 1 1 44885U 19093G 20331.76310637 .00000512 00000-0 71021-4 0 9996 2 44885 97.9460 46.9067 0013531 237.0337 122.9577 14.82129275 50746 RS-44 1 44909U 19096E 20331.27434283 -.00000000 00000-0 -42557-4 0 9992 2 44909 082.5229 247.7785 0216742 207.9358 150.9972 12.79707786042881 SwampSat-2 1 45115U 19071E 20331.37466188 .00043259 00000-0 10801-2 0 9991 2 45115 051.6402 296.1579 0009496 289.4794 070.5165 15.39691671046020 HO-107 1 45119U 19071J 20331.75837216 .00004809 00000-0 15356-3 0 9990 2 45119 51.6422 298.6470 0011217 280.2429 79.7288 15.34311579 46030 Phoenix 1 45258U 98067RB 20331.23970658 .00013388 00000-0 22040-3 0 9997 2 45258 51.6405 262.7198 0005305 211.6640 148.4031 15.52658048 43591 AztechSat-1 1 45261U 98067RE 20331.22541088 .00031308 00000-0 45664-3 0 9990 2 45261 51.6399 260.3876 0006017 228.5072 131.5403 15.55383453 43641 QARMAN 1 45263U 98067RG 20331.28782069 .00025225 00000-0 38708-3 0 9996 2 45263 051.6403 261.5507 0005833 225.8201 134.2311 15.54113734043675 Quetzal 1 1 45598U 98067RL 20331.84649807 .00021312 00000-0 34165-3 0 9997 2 45598 51.6412 260.7860 0001853 357.2630 2.8350 15.53023696 33008 BY70-2 1 45857U 20042B 20331.84811455 .00001654 00000-0 24470-3 0 9998 2 45857 98.0025 43.6093 0012652 143.4442 216.7638 14.76472123 21641 UPMSat 2 1 46276U 20061E 20331.16440992 .00001025 00000-0 56553-4 0 9994 2 46276 097.4562 042.8131 0001878 043.8121 316.3261 15.16141232012733 AmicalSat 1 46287U 20061R 20331.43689676 .00001403 00000-0 90090-4 0 9994 2 46287 097.5115 042.9534 0004270 081.3308 278.8405 15.10064133012708 SALSAT 1 46495U 20068K 20331.58957160 -.00000110 00000-0 -35745-5 0 9997 2 46495 097.6734 264.5399 0018529 042.0352 318.2292 15.03253989008858 BY70-3 1 46839U 20079N 20331.78290029 .00004989 00000-0 16253-3 0 9994 2 46839 97.2630 43.6064 0006793 200.7798 315.1603 15.32265392 3156 Bobcat-1 1 46921U 98067RR 20331.43111455 .00014329 00000-0 25393-3 0 9999 2 46921 051.6431 265.5018 0002985 056.4893 303.6381 15.50516512003323 SPOC 1 46922U 98067RS 20331.43078158 .00019152 00000-0 33537-3 0 9990 2 46922 051.6431 265.4997 0002846 061.2844 298.8431 15.50616389003284 Neutron-1 1 46923U 98067RT 20331.43222034 .00014197 00000-0 25241-3 0 9992 2 46923 51.6429 265.5091 0002981 67.3379 292.7925 15.50432803 3343 /EX
